Voltar ao catálogo

NOAA 16 DEB

AtivoSSO
NORAD 41208·DEBRIS·🇺🇸 United States

Lançado Sep 21, 2000 de Vandenberg Space Force Base

Loading…

Próximas Passagens (próximas 24 horas)

TLE

AtualizadoSource: Space-Track

Época: Sep 13, 2026, 11:14 UTC

1 41208U 00055DM  26256.46873932  .00001944  00000-0  94715-3 0  9995
2 41208  98.6626 266.6618 0030999 357.7115   2.3915 14.19015010552079

Acompanhe NOAA 16 DEB em tempo real com AllMySat

Download on the App Store